Location: Ch�nes
(46.2515°N, 4.7565°E)
Time: 01:47:46
(UTC+00:00)

Daily predictions for brighter satellites

Satellite Brightness Start Highest point End
(mag) Time Altitude Azimuth Time Altitude Azimuth Time Altitude Azimuth
Cosmos 1464 Rocket 3.9 00:08:47 67° SSE 00:09:31 76° E 00:15:45 10° NNE
Cosmos 2333 4.2 00:04:35 10° NNW 00:10:14 68° WSW 00:10:14 68° WSW
Cosmos 2219 Rocket 2.1 00:05:11 10° NNW 00:10:55 86° ENE 00:11:13 80° SE
Cosmos 1782 Rocket 4.1 00:12:54 56° NNE 00:12:54 56° NNE 00:16:22 10° N
Lacrosse 4 Rocket 2.2 00:13:01 51° NNE 00:13:01 51° NNE 00:16:16 10° NNE
Cosmos 1354 Rocket 4.1 00:16:38 69° E 00:16:38 69° E 00:21:47 10° NNE
Cosmos 2322 Rocket 4.1 00:14:51 10° WNW 00:17:43 17° W 00:17:43 17° W
Cosmos 968 Rocket 3.5 00:19:13 68° WNW 00:19:13 68° WNW 00:24:17 10° NNE
SL-4 R/B 4.2 00:22:19 15° ENE 00:22:19 15° ENE 00:23:08 10° ENE
COSMOS 2428 2.6 00:23:17 10° NNW 00:29:02 78° WSW 00:29:11 77° SW
SL-16 R/B 3.5 00:28:37 25° ESE 00:31:48 43° ENE 00:37:39 10° N
CENTAUR R/B 4.3 00:28:02 10° W 00:33:40 31° NNW 00:40:10 10° NNE
Nadezhda 4 Rocket 3.9 00:27:52 10° N 00:34:13 85° E 00:35:18 64° SSE
Cosmos 2360 Rocket 3.7 00:29:55 10° NW 00:33:24 23° W 00:33:24 23° W
Cosmos 2034 Rocket 3.9 00:35:41 66° S 00:36:38 86° E 00:42:59 10° N
CZ-2D R/B 3.4 00:32:16 10° NNE 00:37:07 31° E 00:38:05 29° ESE
Okean 2 Rocket 3.4 00:41:46 64° NE 00:41:46 64° NE 00:45:47 10° NNE
Meteor 2-9 Rocket 4.3 00:41:29 60° W 00:41:54 62° WNW 00:47:32 10° N
GEOS 3 Rocket 3.6 00:37:05 10° NE 00:42:30 73° SE 00:42:46 71° SSE
Cosmos 1975 4.2 00:45:31 32° NW 00:45:31 32° NW 00:48:22 10° N
ADEOS II 4.3 00:42:23 10° NE 00:45:20 15° E 00:47:27 12° ESE
Cosmos 2297 Rocket 3.0 00:45:36 36° ESE 00:46:09 37° ESE 00:51:19 10° NE
Cosmos 2219 3.8 00:45:50 42° ESE 00:46:18 43° ESE 00:51:36 10° NE
Cosmos 1092 Rocket 4.1 00:40:04 10° N 00:46:19 67° E 00:48:01 48° SE
Cosmos 1975 Rocket 4.1 00:42:14 10° NNW 00:45:36 39° WNW 00:45:36 39° WNW
Cosmos 1980 3.9 00:42:25 10° NNW 00:48:05 66° ENE 00:49:51 43° SE
Sich 1 Rocket 4.0 00:48:43 57° NW 00:48:43 57° NW 00:52:32 10° N
PSLV R/B 4.4 00:44:05 10° N 00:48:26 45° WNW 00:48:26 45° WNW
Cosmos 2333 Rocket 2.7 00:43:12 10° NW 00:48:12 44° W 00:48:12 44° W
Cosmos 1777 Rocket 4.3 00:49:00 51° ESE 00:49:17 52° ESE 00:54:26 10° NNE
Helios 1B rocket 3.1 00:45:29 10° N 00:48:49 50° NNW 00:48:49 50° NNW
Meteor 1-29 4.4 00:50:00 10° N 00:52:12 37° N 00:52:12 37° N
Cosmos 44 Rocket 3.3 00:50:30 10° NW 00:55:08 72° W 00:55:08 72° W
Cosmos 1503 Rocket 4.5 00:56:39 47° W 00:57:20 50° WNW 01:02:35 10° NNE
Cosmos 1300 Rocket 3.7 00:57:53 70° N 00:57:53 70° N 01:01:45 10° N
Cosmos 2237 Rocket 2.3 00:52:28 10° NNW 00:58:09 73° ENE 00:59:51 46° SE
DELTA 2 DEB (DPAF) 4.2 01:00:27 69° E 01:00:34 70° ENE 01:05:01 10° N
Okean 1 Rocket 4.1 01:01:02 36° E 01:01:16 36° E 01:05:15 10° NNE
CZ-4C R/B 4.2 01:04:19 40° NE 01:04:19 40° NE 01:07:13 10° N
Spot 1 4.1 01:06:48 72° NNW 01:06:48 72° NNW 01:10:30 10° NNW
Cosmos 2151 Rocket 3.5 01:12:29 77° NW 01:12:29 77° NW 01:16:45 10° N
Meteor 1-12 Rocket 4.3 01:11:28 58° SW 01:12:36 73° WNW 01:18:38 10° N
Timation 2 Rocket 3.9 01:14:34 54° SW 01:16:02 80° WNW 01:22:08 10° NNE
Cosmos 1707 4.1 01:14:35 10° NNW 01:17:05 31° NW 01:17:05 31° NW
In-Cosmos 22 4.1 01:12:50 10° NNW 01:18:27 71° W 01:19:15 61° SSW
Meteor 1-15 Rocket 4.2 01:22:53 51° SSE 01:24:20 75° E 01:29:57 10° NNE
Cosmos 1805 3.8 01:24:26 51° E 01:24:26 51° E 01:28:11 10° NNE
SJ 16-02 2.7 01:25:10 28° ESE 01:25:57 30° E 01:29:49 10° NE
DNEPR-1 R/B 4.3 01:21:20 10° NW 01:27:15 67° NE 01:31:05 16° SE
ERBS 3.6 01:24:09 10° NW 01:27:16 38° NNE 01:30:22 10° ESE
Meteor 2-13 Rocket 4.4 01:26:39 10° NNW 01:32:39 64° W 01:34:10 48° SSW
Cosmos 2227 Rocket 2.2 01:33:34 51° S 01:35:01 76° ESE 01:40:43 10° NNE
Cosmos 1538 Rocket 3.9 01:30:00 10° NNW 01:35:08 67° WSW 01:35:51 59° SSW
Cosmos 1025 Rocket 4.1 01:33:00 10° NNW 01:36:08 31° WNW 01:36:08 31° WNW
MOZ.5/SAFIR/RUBIN 5/SL-8 4.1 01:36:59 48° W 01:36:59 48° W 01:41:33 10° NNW
Resurs 1-4 Rocket 2.0 01:32:49 10° NNE 01:38:07 83° WNW 01:39:24 53° SSW
Cosmos 1674 2.8 01:36:34 10° NNW 01:39:47 61° NW 01:39:47 61° NW
Cosmos 1733 3.4 01:42:54 57° ESE 01:43:10 59° E 01:46:57 10° NNE
NOSS 0 Rocket 4.4 01:38:33 10° NW 01:44:15 38° WSW 01:44:40 37° WSW
ATLAS 3B R/B 4.3 01:41:25 10° W 01:46:52 26° NNW 01:52:24 10° NNE
Cosmos 2279 Rocket 3.9 01:44:46 38° S 01:47:18 84° E 01:53:32 10° N
Cosmos 1461 4.3 01:47:03 26° SE 01:47:55 28° ESE 01:51:46 10° NE
USA 215 3.3 01:42:20 10° NE 01:48:51 64° SE 01:51:29 37° SSW
Cosmos 2026 Rocket 4.1 01:43:25 10° NNW 01:49:21 56° W 01:51:08 41° SW
COBE Rocket 3.8 01:47:34 37° SSE 01:49:24 75° ENE 01:54:03 10° N
Lacrosse 4 Rocket 4.0 01:49:26 10° WNW 01:51:27 13° NW 01:53:26 10° N
Cosmos 1634 Rocket 4.2 01:50:26 40° SW 01:52:31 58° WNW 01:58:41 10° N
Cosmos 2219 Rocket 4.1 01:50:56 10° WNW 01:52:54 14° W 01:52:54 14° W
SL-24 R/B 4.4 01:53:41 38° SSE 01:55:33 81° E 02:00:34 10° N
Cosmos 2082 3.9 01:53:29 38° S 01:55:36 64° ESE 02:01:10 10° NNE
Cosmos 2344 4.4 01:46:10 10° NW 01:55:49 68° WSW 02:09:18 10° SSE
SL-4 R/B 1.9 01:58:02 24° NW 01:59:56 64° NNE 02:03:18 10° ESE
Cosmos 2112 Rocket 4.4 01:55:27 10° NNW 02:00:40 62° ENE 02:05:48 10° SSE
Meteor 1-24 Rocket 3.5 02:00:16 10° N 02:05:47 90° ENE 02:08:55 26° S
SL-16 R/B 2.1 02:01:04 10° NNW 02:06:48 88° WSW 02:12:29 10° SSE
CBERS-1 4.0 02:01:49 10° NNE 02:06:58 83° ESE 02:09:09 36° S
Meteor 2-5 Rocket 3.7 02:03:53 10° NNW 02:09:29 66° W 02:11:58 33° SSW
H-2A R/B 4.4 02:11:07 10° ESE 02:14:17 22° ENE 02:17:28 10° NNE
Cosmos 1898 Rocket 3.9 02:11:41 27° S 02:14:22 57° ESE 02:19:29 10° NNE
ARIANE 5 R/B 3.3 02:09:21 10° NNE 02:14:25 47° E 02:18:03 18° SSE
SL-16 R/B 3.2 02:13:42 31° SW 02:15:27 37° W 02:21:13 10° NNW
NPP 4.1 02:11:06 10° N 02:16:16 49° WNW 02:18:22 32° WSW
IDEFIX/ARIANE 42P 4.0 02:12:31 10° NNE 02:17:13 33° E 02:21:53 10° SSE
CZ-2D R/B 2.8 02:12:08 10° N 02:17:15 42° WNW 02:19:24 29° WSW
Cosmos 1680 Rocket 3.4 02:13:13 10° NNW 02:18:29 82° WSW 02:22:57 14° SSE
NOSS 3-1 (C) 3.8 02:17:24 26° S 02:20:13 50° ESE 02:26:12 10° NE
USA 267 3.5 02:14:50 10° ESE 02:21:21 74° NNE 02:27:53 10° NW
Cosmos 1544 Rocket 4.1 02:20:01 22° SSE 02:22:41 55° E 02:27:04 10° NNE
AQUA 4.3 02:18:13 10° N 02:22:47 46° WNW 02:24:26 33° WSW
Cosmos 1607 3.9 02:19:05 10° NW 02:25:30 70° WSW 02:31:55 10° SSE
ADEOS II 2.0 02:20:22 10° NNE 02:25:39 79° WNW 02:28:23 29° SSW
Cosmos 990 Rocket 4.0 02:23:20 29° S 02:26:01 77° ESE 02:31:13 10° NNE
Cosmos 1766 4.0 02:26:32 33° W 02:27:08 34° WNW 02:30:44 10° N
Cosmos 2263 Rocket 3.7 02:23:54 11° SSE 02:28:32 30° ESE 02:33:19 10° NE
IRS-1D 3.6 02:24:29 10° N 02:29:28 62° WNW 02:31:54 30° SW
Meteor 1-22 Rocket 4.1 02:27:11 31° SSW 02:29:41 65° WNW 02:34:59 10° N
Cosmos 2297 Rocket 3.0 02:27:24 24° WSW 02:30:10 39° NW 02:35:27 10° NNE
Cosmos 2219 4.2 02:27:45 22° W 02:30:34 34° NW 02:35:39 10° NNE
Okean 1-7 Rocket 3.5 02:27:58 10° NNW 02:32:22 76° W 02:35:04 23° S
IRS-1C 4.1 02:29:53 10° NNE 02:35:16 89° W 02:38:42 23° SSW
Cosmos 1626 2.7 02:34:58 10° NNW 02:38:24 36° W 02:38:57 34° WSW
Meteor 1-28 Rocket 3.1 02:36:22 22° S 02:38:46 83° WSW 02:42:35 10° NNW
Okean 1 Rocket 4.5 02:38:14 21° W 02:39:17 22° WNW 02:42:44 10° NNW
Cosmos 2266 Rocket 4.0 02:33:00 10° NNW 02:39:22 72° W 02:45:02 13° S
Cosmos 1655 Rocket 4.2 02:34:05 10° NNW 02:40:10 54° W 02:44:28 20° SSW
Cosmos 2237 Rocket 3.6 02:37:50 10° WNW 02:41:33 18° W 02:41:37 18° W
CZ-4B R/B 4.0 02:38:12 10° N 02:42:40 40° WNW 02:44:51 25° WSW
Cosmos 1470 2.7 02:41:43 30° SSW 02:43:35 74° W 02:47:35 10° N
Cosmos 1603 4.4 02:40:37 10° NNW 02:46:18 57° ENE 02:51:54 10° SE
SL-08 R/B 3.4 02:43:56 14° S 02:48:06 64° WSW 02:53:02 10° NNW
USA 229 DEB 3.7 02:48:34 20° SSW 02:53:17 74° SE 03:00:09 10° NE
USA 229 3.7 02:48:40 20° SSW 02:53:22 73° SE 03:00:12 10° NE
Cosmos 2098 Rocket 3.8 02:49:42 10° NNW 02:54:22 52° W 02:59:34 13° SSW
NOSS 3 (A) 4.5 02:55:49 34° SSW 02:56:47 65° SE 02:59:39 10° NE
OPS 8737 4.4 02:57:00 27° SW 02:58:46 71° NW 03:01:48 10° NE
ERBS 3.2 03:00:37 10° WNW 03:03:33 26° SW 03:06:13 10° S
Meteor 2-14 Rocket 4.4 02:58:07 10° N 03:04:12 88° W 03:10:16 10° S
NOSS 2-3 (C) 4.1 03:01:08 17° SSW 03:04:14 55° ESE 03:09:04 10° NE
NOSS 3-1 (A) 3.6 03:00:07 16° SSW 03:04:27 63° ESE 03:10:40 10° NE
SJ 16-02 2.5 03:02:10 19° WSW 03:04:29 30° WNW 03:08:24 10° N
CSL-04 DEB 4.2 03:05:41 10° SSE 03:09:35 83° WSW 03:13:33 10° NNW
MSX 4.1 03:07:37 10° NNE 03:13:23 72° ESE 03:19:08 10° S
Cosmos 1809 Rocket 4.5 03:07:25 10° NNW 03:13:25 62° W 03:19:25 10° S
Cosmos 1943 3.4 03:07:56 10° NNW 03:13:36 76° ENE 03:19:12 10° SSE
Cosmos 1455 Rocket 4.0 03:11:32 18° SW 03:14:03 32° WNW 03:18:03 10° N
Cosmos 1626 Rocket 3.6 03:10:26 10° NNW 03:14:41 59° W 03:18:55 10° S
Cosmos 1758 4.0 03:13:24 18° SW 03:15:58 39° WNW 03:19:47 10° N
Resurs 1-4 Rocket 4.1 03:14:29 10° NNW 03:17:08 14° NW 03:19:46 10° W
Spot 4 Rocket 4.1 03:12:50 10° N 03:17:59 70° WNW 03:23:00 11° SSW
Meteor 1-21 Rocket 4.1 03:12:56 10° NNW 03:18:31 74° W 03:24:00 10° S
Cosmos 2227 Rocket 3.8 03:15:24 10° W 03:19:43 22° NW 03:24:06 10° N
SeaSat 1 2.9 03:17:17 10° NE 03:22:12 61° ESE 03:27:04 10° SSW
Landsat 5 3.2 03:20:28 10° S 03:24:20 78° WSW 03:28:22 10° NNW
CZ-2C R/B 2.7 03:22:14 10° N 03:26:08 77° WNW 03:29:56 10° SSW
Cosmos 1461 3.8 03:23:26 14° WSW 03:26:52 40° NW 03:31:12 10° NNE
CZ-2D R/B 3.8 03:23:47 10° N 03:27:41 46° WNW 03:31:11 12° SW
Cosmos 2227 4.3 03:24:45 11° SSW 03:30:24 83° WNW 03:36:13 10° NNE
FALCON 9 DEB 3.2 03:27:09 10° WNW 03:30:35 58° SW 03:33:59 10° SE
USA 215 3.8 03:25:28 10° NE 03:31:48 53° NNW 03:38:07 10° W
ATLAS CENTAUR R/B 3.6 03:29:04 10° SSE 03:32:14 21° ESE 03:35:16 10° ENE
ATLAS 3B CENTAUR R/B 4.3 03:27:04 12° WSW 03:32:31 18° SSW 03:36:41 10° SSE
Cosmos 1340 Rocket 4.0 03:29:56 14° WSW 03:32:38 26° WNW 03:36:01 10° NNW
Cosmos 1758 Rocket 3.6 03:28:21 10° N 03:32:41 81° E 03:37:00 10° S
ERS-2 2.1 03:32:01 10° S 03:35:37 62° WSW 03:39:14 10° NNW
Cosmos 724 4.4 03:30:32 10° NW 03:36:26 58° WSW 03:42:23 10° SSE
Cosmos 2228 3.7 03:32:33 10° S 03:36:49 57° E 03:41:08 10° NNE
Cosmos 1953 2.8 03:35:04 10° SSW 03:38:53 42° WNW 03:42:46 10° N
SL-4 R/B 2.6 03:36:25 10° W 03:39:14 24° SW 03:42:03 10° SSE
Cosmos 1726 3.0 03:38:38 11° SW 03:41:50 32° WNW 03:45:11 10° N
Cosmos 1908 3.2 03:40:04 10° SSW 03:43:58 80° W 03:47:55 10° N
Meteor 1-16 Rocket 4.2 03:39:47 10° SSW 03:45:07 70° WNW 03:50:38 10° N
Cosmos 2285 Rocket 4.1 03:40:37 10° SSW 03:46:55 83° ESE 03:53:15 10° NNE
SL-16 R/B 3.8 03:47:16 10° WNW 03:50:02 14° W 03:52:48 10° SW
H-2A R/B 2.5 03:46:15 10° SSW 03:50:04 37° W 03:53:54 10° NNW
Cosmos 2150 Rocket 4.0 03:46:34 10° SSW 03:51:43 90° NNW 03:56:59 10° NNE
ARIANE 5 R/B 3.8 03:48:57 10° N 03:53:15 27° WNW 03:57:34 10° WSW
Cosmos 1825 Rocket 3.5 03:50:55 10° NNW 03:55:16 74° W 03:59:34 10° S
IDEFIX/ARIANE 42P 3.3 03:52:06 10° N 03:56:49 36° WNW 04:01:30 10° SW
CZ-4C R/B 4.1 03:56:54 10° SSW 03:59:31 23° W 04:02:11 10° NW
Cosmos 1328 3.9 03:55:45 10° NNW 03:59:40 55° W 04:03:33 10° S
ADEOS 4.2 03:54:48 10° NNE 04:00:00 62° ESE 04:05:10 10° S
Cosmos 1953 Rocket 3.7 03:56:48 10° N 04:01:20 86° E 04:05:49 10° S
